Location: Dark Ridge Observatory
(32.8036°N, 105.4750°W)
Time: 22:45:44
(UTC-07:00)

N. Korean satellite - Visible Passes

Search period start: 19 February 2018 00:00
Search period end: 01 March 2018 00:00
Orbit: 459 x 514 km, 97.2° (Epoch: 19 February)

Date Brightness Start Highest point End Pass type
(mag) Time Alt. Az. Time Alt. Az. Time Alt. Az.
20 Feb 9.6 18:44:43 10° SW 18:47:18 20° W 18:49:54 10° NW visible
21 Feb 7.8 18:20:13 10° S 18:23:29 44° W 18:26:49 10° NNW visible
22 Feb 9.9 05:52:03 10° NE 05:54:43 19° E 05:57:23 10° SE visible
24 Feb 9.5 18:43:08 10° SSW 18:45:46 21° W 18:48:27 10° NW visible
25 Feb 7.8 18:18:38 10° S 18:21:57 46° W 18:25:19 10° NNW visible
26 Feb 10.0 05:50:34 10° NE 05:53:12 18° E 05:55:51 10° SE visible
27 Feb 10.5 19:07:42 10° W 19:08:06 10° W 19:08:30 10° W visible
28 Feb 9.5 18:41:28 10° SSW 18:44:12 22° W 18:46:58 10° NW visible
